Year,Month,Day,Hour,Minute,Value (Times are PST for temperature in C)
2018,04,15,00,00,7.30
2018,04,15,00,01,7.30
2018,04,15,00,02,7.30
2018,04,15,00,03,7.30
2018,04,15,00,04,7.30
2018,04,15,00,05,7.20
2018,04,15,00,06,7.20
2018,04,15,00,07,7.20
2018,04,15,00,08,7.20
2018,04,15,00,09,7.20
2018,04,15,00,10,7.20
2018,04,15,00,11,7.20
2018,04,15,00,12,7.20
2018,04,15,00,13,7.20
2018,04,15,00,14,7.20
2018,04,15,00,15,7.20
2018,04,15,00,16,7.20
2018,04,15,00,17,7.20
2018,04,15,00,18,7.20
2018,04,15,00,19,7.20
2018,04,15,00,20,7.20
2018,04,15,00,21,7.20
2018,04,15,00,22,7.20
2018,04,15,00,23,7.10
2018,04,15,00,24,7.10
2018,04,15,00,25,7.10
2018,04,15,00,26,7.10
2018,04,15,00,27,7.10
2018,04,15,00,28,7.10
2018,04,15,00,29,7.10
2018,04,15,00,30,7.10
2018,04,15,00,31,7.10
2018,04,15,00,32,7.10
2018,04,15,00,33,7.10
2018,04,15,00,34,7.10
2018,04,15,00,35,7.10
2018,04,15,00,36,7.10
2018,04,15,00,37,7.10
2018,04,15,00,38,7.10
2018,04,15,00,39,7.10
2018,04,15,00,40,7.10
2018,04,15,00,41,7.10
2018,04,15,00,42,7.00
2018,04,15,00,43,7.00
2018,04,15,00,44,7.00
2018,04,15,00,45,7.00
2018,04,15,00,46,7.00
2018,04,15,00,47,7.00
2018,04,15,00,48,7.00
2018,04,15,00,49,6.90
2018,04,15,00,50,6.90
2018,04,15,00,51,6.90
2018,04,15,00,52,6.90
2018,04,15,00,53,6.90
2018,04,15,00,54,6.90
2018,04,15,00,55,6.80
2018,04,15,00,56,6.80
2018,04,15,00,57,6.80
2018,04,15,00,58,6.80
2018,04,15,00,59,6.80
2018,04,15,01,00,6.70
2018,04,15,01,01,6.70
2018,04,15,01,02,6.70
2018,04,15,01,03,6.70
2018,04,15,01,04,6.70
2018,04,15,01,05,6.60
2018,04,15,01,06,6.60
2018,04,15,01,07,6.60
2018,04,15,01,08,6.60
2018,04,15,01,09,6.60
2018,04,15,01,10,6.60
2018,04,15,01,11,6.50
2018,04,15,01,12,6.50
2018,04,15,01,13,6.50
2018,04,15,01,14,6.50
2018,04,15,01,15,6.50
2018,04,15,01,16,6.50
2018,04,15,01,17,6.50
2018,04,15,01,18,6.50
2018,04,15,01,19,6.50
2018,04,15,01,20,6.50
2018,04,15,01,21,6.50
2018,04,15,01,22,6.50
2018,04,15,01,23,6.50
2018,04,15,01,24,6.50
2018,04,15,01,25,6.50
2018,04,15,01,26,6.60
2018,04,15,01,27,6.60
2018,04,15,01,28,6.60
2018,04,15,01,29,6.60
2018,04,15,01,30,6.60
2018,04,15,01,31,6.60
2018,04,15,01,32,6.60
2018,04,15,01,33,6.60
2018,04,15,01,34,6.70
2018,04,15,01,35,6.70
2018,04,15,01,36,6.70
2018,04,15,01,37,6.70
2018,04,15,01,38,6.70
2018,04,15,01,39,6.70
2018,04,15,01,40,6.70
2018,04,15,01,41,6.70
2018,04,15,01,42,6.70
2018,04,15,01,43,6.70
2018,04,15,01,44,6.70
2018,04,15,01,45,6.70
2018,04,15,01,46,6.70
2018,04,15,01,47,6.80
2018,04,15,01,48,6.80
2018,04,15,01,49,6.80
2018,04,15,01,50,6.80
2018,04,15,01,51,6.80
2018,04,15,01,52,6.80
2018,04,15,01,53,6.80
2018,04,15,01,54,6.80
2018,04,15,01,55,6.80
2018,04,15,01,56,6.80
2018,04,15,01,57,6.70
2018,04,15,01,58,6.70
2018,04,15,01,59,6.70
2018,04,15,02,00,6.70
2018,04,15,02,01,6.70
2018,04,15,02,02,6.70
2018,04,15,02,03,6.70
2018,04,15,02,04,6.70
2018,04,15,02,05,6.70
2018,04,15,02,06,6.70
2018,04,15,02,07,6.70
2018,04,15,02,08,6.70
2018,04,15,02,09,6.70
2018,04,15,02,10,6.70
2018,04,15,02,11,6.70
2018,04,15,02,12,6.70
2018,04,15,02,13,6.70
2018,04,15,02,14,6.70
2018,04,15,02,15,6.70
2018,04,15,02,16,6.70
2018,04,15,02,17,6.70
2018,04,15,02,18,6.70
2018,04,15,02,19,6.70
2018,04,15,02,20,6.70
2018,04,15,02,21,6.60
2018,04,15,02,22,6.60
2018,04,15,02,23,6.60
2018,04,15,02,24,6.60
2018,04,15,02,25,6.60
2018,04,15,02,26,6.60
2018,04,15,02,27,6.60
2018,04,15,02,28,6.60
2018,04,15,02,29,6.60
2018,04,15,02,30,6.60
2018,04,15,02,31,6.60
2018,04,15,02,32,6.60
2018,04,15,02,33,6.50
2018,04,15,02,34,6.50
2018,04,15,02,35,6.50
2018,04,15,02,36,6.50
2018,04,15,02,37,6.50
2018,04,15,02,38,6.50
2018,04,15,02,39,6.50
2018,04,15,02,40,6.40
2018,04,15,02,41,6.40
2018,04,15,02,42,6.40
2018,04,15,02,43,6.40
2018,04,15,02,44,6.40
2018,04,15,02,45,6.40
2018,04,15,02,46,6.40
2018,04,15,02,47,6.40
2018,04,15,02,48,6.40
2018,04,15,02,49,6.40
2018,04,15,02,50,6.40
2018,04,15,02,51,6.40
2018,04,15,02,52,6.40
2018,04,15,02,53,6.40
2018,04,15,02,54,6.40
2018,04,15,02,55,6.40
2018,04,15,02,56,6.40
2018,04,15,02,57,6.40
2018,04,15,02,58,6.40
2018,04,15,02,59,6.40
2018,04,15,03,00,6.40
2018,04,15,03,01,6.30
2018,04,15,03,02,6.30
2018,04,15,03,03,6.30
2018,04,15,03,04,6.30
2018,04,15,03,05,6.30
2018,04,15,03,06,6.30
2018,04,15,03,07,6.30
2018,04,15,03,08,6.30
2018,04,15,03,09,6.40
2018,04,15,03,10,6.40
2018,04,15,03,11,6.40
2018,04,15,03,12,6.40
2018,04,15,03,13,6.40
2018,04,15,03,14,6.40
2018,04,15,03,15,6.40
2018,04,15,03,16,6.40
2018,04,15,03,17,6.40
2018,04,15,03,18,6.40
2018,04,15,03,19,6.40
2018,04,15,03,20,6.40
2018,04,15,03,21,6.40
2018,04,15,03,22,6.40
2018,04,15,03,23,6.40
2018,04,15,03,24,6.40
2018,04,15,03,25,6.40
2018,04,15,03,26,6.40
2018,04,15,03,27,6.40
2018,04,15,03,28,6.40
2018,04,15,03,29,6.40
2018,04,15,03,30,6.40
2018,04,15,03,31,6.40
2018,04,15,03,32,6.40
2018,04,15,03,33,6.40
2018,04,15,03,34,6.40
2018,04,15,03,35,6.40
2018,04,15,03,36,6.40
2018,04,15,03,37,6.40
2018,04,15,03,38,6.40
2018,04,15,03,39,6.40
2018,04,15,03,40,6.40
2018,04,15,03,41,6.40
2018,04,15,03,42,6.40
2018,04,15,03,43,6.40
2018,04,15,03,44,6.40
2018,04,15,03,45,6.40
2018,04,15,03,46,6.30
2018,04,15,03,47,6.30
2018,04,15,03,48,6.30
2018,04,15,03,49,6.30
2018,04,15,03,50,6.30
2018,04,15,03,51,6.30
2018,04,15,03,52,6.30
2018,04,15,03,53,6.30
2018,04,15,03,54,6.30
2018,04,15,03,55,6.40
2018,04,15,03,56,6.40
2018,04,15,03,57,6.40
2018,04,15,03,58,6.40
2018,04,15,03,59,6.40
2018,04,15,04,00,6.40
2018,04,15,04,01,6.40
2018,04,15,04,02,6.40
2018,04,15,04,03,6.40
2018,04,15,04,04,6.40
2018,04,15,04,05,6.40
2018,04,15,04,06,6.40
2018,04,15,04,07,6.40
2018,04,15,04,08,6.40
2018,04,15,04,09,6.40
2018,04,15,04,10,6.40
2018,04,15,04,11,6.40
2018,04,15,04,12,6.40
2018,04,15,04,13,6.40
2018,04,15,04,14,6.40
2018,04,15,04,15,6.40
2018,04,15,04,16,6.40
2018,04,15,04,17,6.40
2018,04,15,04,18,6.40
2018,04,15,04,19,6.40
2018,04,15,04,20,6.40
2018,04,15,04,21,6.40
2018,04,15,04,22,6.40
2018,04,15,04,23,6.40
2018,04,15,04,24,6.40
2018,04,15,04,25,6.40
2018,04,15,04,26,6.40
2018,04,15,04,27,6.40
2018,04,15,04,28,6.40
2018,04,15,04,29,6.40
2018,04,15,04,30,6.40
2018,04,15,04,31,6.40
2018,04,15,04,32,6.40
2018,04,15,04,33,6.40
2018,04,15,04,34,6.40
2018,04,15,04,35,6.40
2018,04,15,04,36,6.40
2018,04,15,04,37,6.40
2018,04,15,04,38,6.40
2018,04,15,04,39,6.40
2018,04,15,04,40,6.40
2018,04,15,04,41,6.40
2018,04,15,04,42,6.40
2018,04,15,04,43,6.40
2018,04,15,04,44,6.40
2018,04,15,04,45,6.40
2018,04,15,04,46,6.40
2018,04,15,04,47,6.40
2018,04,15,04,48,6.40
2018,04,15,04,49,6.40
2018,04,15,04,50,6.40
2018,04,15,04,51,6.50
2018,04,15,04,52,6.50
2018,04,15,04,53,6.50
2018,04,15,04,54,6.50
2018,04,15,04,55,6.50
2018,04,15,04,56,6.50
2018,04,15,04,57,6.50
2018,04,15,04,58,6.50
2018,04,15,04,59,6.50
2018,04,15,05,00,6.50
2018,04,15,05,01,6.50
2018,04,15,05,02,6.50
2018,04,15,05,03,6.50
2018,04,15,05,04,6.50
2018,04,15,05,05,6.50
2018,04,15,05,06,6.50
2018,04,15,05,07,6.40
2018,04,15,05,08,6.40
2018,04,15,05,09,6.40
2018,04,15,05,10,6.40
2018,04,15,05,11,6.40
2018,04,15,05,12,6.40
2018,04,15,05,13,6.40
2018,04,15,05,14,6.30
2018,04,15,05,15,6.30
2018,04,15,05,16,6.30
2018,04,15,05,17,6.30
2018,04,15,05,18,6.30
2018,04,15,05,19,6.30
2018,04,15,05,20,6.30
2018,04,15,05,21,6.30
2018,04,15,05,22,6.30
2018,04,15,05,23,6.30
2018,04,15,05,24,6.30
2018,04,15,05,25,6.30
2018,04,15,05,26,6.30
2018,04,15,05,27,6.30
2018,04,15,05,28,6.30
2018,04,15,05,29,6.30
2018,04,15,05,30,6.30
2018,04,15,05,31,6.30
2018,04,15,05,32,6.30
2018,04,15,05,33,6.30
2018,04,15,05,34,6.30
2018,04,15,05,35,6.30
2018,04,15,05,36,6.30
2018,04,15,05,37,6.30
2018,04,15,05,38,6.30
2018,04,15,05,39,6.30
2018,04,15,05,40,6.40
2018,04,15,05,41,6.40
2018,04,15,05,42,6.40
2018,04,15,05,43,6.40
2018,04,15,05,44,6.40
2018,04,15,05,45,6.40
2018,04,15,05,46,6.40
2018,04,15,05,47,6.40
2018,04,15,05,48,6.40
2018,04,15,05,49,6.50
2018,04,15,05,50,6.50
2018,04,15,05,51,6.50
2018,04,15,05,52,6.50
2018,04,15,05,53,6.50
2018,04,15,05,54,6.50
2018,04,15,05,55,6.60
2018,04,15,05,56,6.60
2018,04,15,05,57,6.60
2018,04,15,05,58,6.60
2018,04,15,05,59,6.60
2018,04,15,06,00,6.60
2018,04,15,06,01,6.60
2018,04,15,06,02,6.60
2018,04,15,06,03,6.60
2018,04,15,06,04,6.60
2018,04,15,06,05,6.60
2018,04,15,06,06,6.60
2018,04,15,06,07,6.60
2018,04,15,06,08,6.60
2018,04,15,06,09,6.60
2018,04,15,06,10,6.60
2018,04,15,06,11,6.60
2018,04,15,06,12,6.60
2018,04,15,06,13,6.60
2018,04,15,06,14,6.60
2018,04,15,06,15,6.60
2018,04,15,06,16,6.60
2018,04,15,06,17,6.60
2018,04,15,06,18,6.60
2018,04,15,06,19,6.60
2018,04,15,06,20,6.60
2018,04,15,06,21,6.60
2018,04,15,06,22,6.60
2018,04,15,06,23,6.60
2018,04,15,06,24,6.60
2018,04,15,06,25,6.60
2018,04,15,06,26,6.60
2018,04,15,06,27,6.60
2018,04,15,06,28,6.60
2018,04,15,06,29,6.60
2018,04,15,06,30,6.60
2018,04,15,06,31,6.60
2018,04,15,06,32,6.50
2018,04,15,06,33,6.50
2018,04,15,06,34,6.50
2018,04,15,06,35,6.50
2018,04,15,06,36,6.40
2018,04,15,06,37,6.40
2018,04,15,06,38,6.40
2018,04,15,06,39,6.40
2018,04,15,06,40,6.40
2018,04,15,06,41,6.40
2018,04,15,06,42,6.40
2018,04,15,06,43,6.40
2018,04,15,06,44,6.40
2018,04,15,06,45,6.40
2018,04,15,06,46,6.40
